Overview Statistics Trail Chart Weather Telemetry Raw packets
 

This is the latest recevied weather packets stored in our database for station/object HP3ICC-23. If no packets are shown the sender has not sent any weather packets the latest 10 day(s).

<< 11 12 13 14 15 16 17 >>
Time Temp. Humidity Pressure Rain* Wind** Luminosity Snow
1788446519 16.11° C 74% 1014 hPa 0 mm - - -
1788445379 15.56° C 80% 1014 hPa 0 mm - - -
1788445319 15.56° C 80% 1014 hPa 0 mm - - -
1788444178 15.56° C 79% 1014 hPa 0 mm - - -
1788442978 15° C 82% 1014 hPa 0 mm - - -
1788442918 15° C 82% 1014 hPa 0 mm - - -
1788441778 14.44° C 89% 1014 hPa 0 mm - - -
1788441718 14.44° C 89% 1014 hPa 0 mm - - -
1788440577 13.89° C 88% 1014 hPa 0 mm - - -
1788440517 13.89° C 88% 1014 hPa 0 mm - - -
1788439375 13.89° C 88% 1014 hPa 0 mm - - -
1788439315 13.89° C 88% 1014 hPa 0 mm - - -
1788438175 13.89° C 92% 1014 hPa 0 mm - - -
1788438115 13.89° C 92% 1014 hPa 0 mm - - -
1788436975 13.89° C 91% 1014 hPa 0 mm - - -
1788436914 13.89° C 91% 1014 hPa 0 mm - - -
1788435774 13.89° C 92% 1014 hPa 0 mm - - -
1788435714 13.89° C 92% 1014 hPa 0 mm - - -
1788434574 13.33° C 93% 1014 hPa 0 mm - - -
1788434514 13.33° C 93% 1014 hPa 0 mm - - -
1788433374 13.89° C 93% 1014 hPa 0 mm - - -
1788433314 13.89° C 93% 1014 hPa 0 mm - - -
1788432173 14.44° C 92% 1014 hPa 0 mm - - -
1788432113 14.44° C 92% 1014 hPa 0 mm - - -
1788430972 13.33° C 92% 1014 hPa 0 mm - - -

* Rain latest hour (hover to see other rain measurements)
** Current wind speed in m/s (hover to see current wind gust speed)